Regional Weather Roundup
Issued by NWS

Home | Current Version | Previous Version | Graphics & Text | Print | Product List | Glossary On
Versions: 1 2 3 4 5 6 7 8 9 10 11 12 13 14 15 16 17 18 19 20 21 22 23 24 25 26 27 28 29 30 31 32 33 34 35 36 37 38 39 40 41 42 43 44 45 46 47 48 49 50
000
ASUS43 KBIS 041102
RWRND

NORTH DAKOTA REGIONAL WEATHER ROUNDUP
NATIONAL WEATHER SERVICE BISMARCK ND
600 AM CDT TUE AUG 04 2015

NOTE: "FAIR" INDICATES FEW OR NO CLOUDS BELOW 12,000 FEET WITH NO
SIGNIFICANT WEATHER AND/OR OBSTRUCTIONS TO VISIBILITY.


NDZ001>003-009>011-017-041200-
NORTHWEST NORTH DAKOTA

CITY           SKY/WX    TMP DP  RH WIND       PRES   REMARKS
WILLISTON      CLEAR     60  51  72 NE3       29.96S
MINOT          CLEAR     51  47  86 CALM      29.98S
MINOT AFB      CLEAR     48  47  99 SW2       29.97S
$$

NDZ018>021-031>035-040>046-041200-
SOUTHWEST NORTH DAKOTA

CITY           SKY/WX    TMP DP  RH WIND       PRES   REMARKS
BISMARCK       CLEAR     50  48  93 E5        29.99R
DICKINSON      CLEAR     52  48  86 E10       29.96R
GARRISON         N/A     51  49  92 CALM      29.98R
HETTINGER ARPT PTCLDY    57  49  74 E7        29.96F
$$

NDZ004>008-012>016-024-026-027-054-041200-
NORTHEAST NORTH DAKOTA

CITY           SKY/WX    TMP DP  RH WIND       PRES   REMARKS
GRAND FORKS    CLEAR     51  48  89 N5        29.97R
GRND FRKS AFB  CLEAR     50  47  90 NW5       29.97R
DEVILS LAKE    CLEAR     52  43  71 NE3       29.98S
$$

NDZ022-023-025-028>030-036>039-047>053-041200-
SOUTHEAST NORTH DAKOTA

CITY           SKY/WX    TMP DP  RH WIND       PRES   REMARKS
FARGO          CLEAR     51  46  83 N3        29.95S
JAMESTOWN      CLEAR     53  50  89 CALM      29.98R
$$




USA.gov is the U.S. government's official web portal to all federal, state and local government web resources and services.